SCOUT X-4 R/B, 907

Orbit data source: Space-Track

SCOUT X-4 R/B, 907 is space debris in LEO originally from a launch on Sat, 10 Oct 1964 UTC launched from the Air Force Western Test Range (AFWTR). Debris objects in space refer to the collection of defunct objects orbiting the Earth. Examples of debris include non-operational satellites, rocket bodies, and fragments generated from explosions, collisions, or faulty payload assembly.

Loading next visibility...
Identifier
907, 1964-064B
Orbit
LEO
Country
Flag of USUS
Related business
Manufacturer
ABL
Mission
Spacecraft
Bus & Motor
ALTAIR, Unknown motor
Mass
33 kg wet, 33 kg dry
Launch date (UTC)
1964-10-10 (61 years ago)
Launch vehicle
Unknown
Launch site
Air Force Western Test Range (AFWTR)
Object type
Payload
Rocket body
Debris
Shape & HBR
Unknown
Radar Cross Section
Medium (>0.1 m² and <1 m²)

Expand to show TLE details & history
Last TLE update: 8 hours ago

TLE from 8 hours ago
0 SCOUT X-4 R/B
1 00907U 64064B   25293.88843817  .00000275  00000-0  24111-3 0  9990
2 00907  79.6907  70.2801 0121062 194.6759 165.0866 13.80869324 69615
Epoch: 2025-10-20T21:19Z
TLE epoch observation values (Epoch: 2025-10-20T21:19:21.057Z)
Latitude
-0.00005°
Longitude
80.85807°
Altitude
1,049.551 km
Speed
7.284 km/s
True Right ascension
04h 41m 07s
True Declination
0° 00' 00"
Sunlit
Object was in full shadow at epoch
Visualization orbit readout
Latitude
Unknown
Longitude
Unknown
Altitude
Unknown
Speed
Unknown
Apparent Right ascension
Unknown
Apparent Declination
Unknown
Sunlit
N/A
Visualization observer readout
Local Sidereal Time
00:25:36
Azimuth
Unknown
Elevation
Unknown
Doppler factor
Unknown
Orbital elements
Apogee altitude
1,046.911 km
Perigee altitude
869.283 km
Semi-major axis
7,336.234 km
Eccentricity
0.01211
Inclination
79.6907°
RAAN
70.2801°
Arg. of periapsis
194.6759°
True anomaly
165.43848°
Mean anomaly
165.0866°
Eccentric anomaly
165.26305°
Mean motion
3.45409 °/min
Orbital period
104.22 mins
BSTAR
0.00024111
Loading maneuver chart data...
Computing Atmospheric mass density...
Loading historical data...
Loading historical data...
Loading historical data...
Loading historical data...
Loading historical data...
Loading historical data...
Loading historical data...
Other satellites on launch #64 in the year 1964 (1964-10-10 UTC)

Documentation

Showing up to 5 results
|